[[{"header":{"parameterUnit":"m.s-1","parameterCategory":2,"la1":30.2991,"la2":30.254,"lo1":-89.0895,"lo2":-89.0444,"dy":0.0017,"dx":0.0017,"nx":28,"ny":28,"refTime":"2024-06-09T21:00:00:Z","depth":"0","parameterNumber":2,"parameterNumberName":"U-component_of_CURRENTS"},"data":[0,0,0,0,0,0,0,0,0,0,0,0,0,0,0,0,0,0,0,0,0,0,0,0,0,0,0,0,0,0,0,0,0,0,0,0,0,0,0,0,0,0,0,0,0,0,0,0,0,0,0,0,0,0,0,0,0,0,0.4342,0.4346,0,0.4721,0.4724,0.4728,0.4788,0.4785,0.4783,0.478,0.4728,0.4729,0.473,0,0,0,0,0,0,0,0,0,0,0,0,0,0.3809,0.3817,0.4341,0.4347,0.4352,0.472,0.4724,0.4729,0.4788,0.4785,0.4782,0.4779,0.4728,0.4729,0.473,0,0,0,0,0,0,0,0,0,0,0,0,0,0.409,0.382,0.434,0.4433,0.4446,0.4719,0.4725,0.473,0.4789,0.4785,0.4781,0.4778,0.4728,0.4729,0.4731,0.4815,0,0,0.4735,0.4736,0,0,0,0,0,0,0,0,0.4074,0.4108,0.4414,0.4427,0.4442,0.4711,0.4519,0.474,0.479,0.4649,0.478,0.4776,0.4691,0.4696,0.4769,0.4812,0.481,0.4735,0.4736,0.4736,0.4737,0,0,0,0,0,0,0,0.4054,0.4094,0.4482,0.442,0.4438,0.4505,0.4538,0.4563,0.4671,0.4661,0.4669,0.4727,0.4694,0.4768,0.4766,0.4809,0.4735,0.4736,0.4737,0.4738,0.4805,0.4806,0,0,0,0,0,0,0.4025,0.4076,0.447,0.4494,0.4256,0.4518,0.4555,0.4621,0.4681,0.4693,0.473,0.4728,0.4767,0.4765,0.4764,0.4815,0.4736,0.4738,0.4739,0.4804,0.4806,0.4807,0,0,0,0,0,0,0.4012,0.4057,0.4455,0.4299,0.4356,0.4531,0.4605,0.4631,0.4719,0.474,0.474,0.4792,0.4764,0.4762,0.4795,0.4813,0.4738,0.474,0.4803,0.4805,0.4806,0.4947,0,0,0,0,0,0,0.3995,0.405,0.41,0.4298,0.4364,0.4628,0.4611,0.4641,0.4764,0.4766,0.4793,0.4785,0.4761,0.4793,0.4796,0.4814,0.4741,0.4802,0.4804,0.4806,0.4941,0.4953,0.4963,0,0,0,0,0,0.3975,0.406,0.41,0.415,0.4423,0.4632,0.4673,0.4776,0.477,0.4834,0.4836,0.4785,0.4803,0.4798,0.4801,0.4818,0.4801,0.4803,0.4805,0.4936,0.495,0.4962,0,0,0,0,0,0,0.3869,0.4082,0.4128,0.4277,0.4445,0.4645,0.4736,0.48,0.4871,0.4855,0.4834,0.4829,0.4858,0.4824,0.4817,0.4836,0.478,0.4783,0.4878,0.4891,0.4902,0.4861,0.4742,0,0,0,0,0,0.3871,0.3981,0.4189,0.4312,0.4396,0.4568,0.4669,0.4747,0.4842,0.4875,0.4882,0.487,0.4878,0.4872,0.4876,0.4912,0.4893,0.4909,0.4921,0.493,0.4895,0.4911,0.4921,0.4813,0.4813,0.4813,0,0,0.3868,0.4001,0.4065,0.4297,0.4432,0.4565,0.4618,0.479,0.4864,0.485,0.4916,0.4926,0.4899,0.4935,0.4939,0.4902,0.4965,0.4933,0.4942,0.49,0.4914,0.4925,0.4934,0.4815,0.4815,0.4814,0,0,0.3922,0.4035,0.4145,0.4283,0.4502,0.4597,0.4646,0.4844,0.4891,0.4993,0.4972,0.4992,0.5025,0.5004,0.4995,0.5066,0.5035,0.5063,0.508,0.5099,0.5108,0.5116,0.5175,0.5186,0.5056,0.5056,0.5056,0,0.3907,0.4073,0.4212,0.4353,0.446,0.46,0.4725,0.4814,0.498,0.5008,0.5007,0.5061,0.5047,0.5063,0.508,0.5089,0.5112,0.5045,0.5116,0.5122,0.5128,0.5185,0.5196,0.5063,0.5062,0.5062,0.5061,0,0.4046,0.4175,0.4258,0.4448,0.4572,0.4717,0.4852,0.4936,0.4992,0.5063,0.512,0.5133,0.5145,0.5155,0.5142,0.5166,0.5181,0.5148,0.509,0.5148,0.5205,0.5214,0.5073,0.5071,0.5069,0.5067,0,0,0.4009,0.4294,0.4316,0.4412,0.4633,0.4749,0.4851,0.4989,0.5038,0.5136,0.5191,0.5212,0.522,0.5205,0.52,0.5204,0.5294,0.5193,0.5191,0.5264,0.5383,0.5269,0.5267,0.5293,0.5293,0.5294,0.5435,0,0.4073,0.4304,0.4424,0.4601,0.4732,0.4854,0.493,0.5049,0.5125,0.5199,0.5215,0.5259,0.5237,0.5257,0.5265,0.5285,0.5312,0.526,0.53,0.5301,0.5202,0.5269,0.4966,0.5052,0.5443,0.5444,0.5445,0,0.4165,0.4304,0.449,0.4682,0.4743,0.4828,0.4962,0.5058,0.5167,0.5223,0.5271,0.5305,0.5336,0.5304,0.536,0.5341,0.536,0.537,0.5376,0.5203,0.5198,0.504,0.5052,0.4976,0.5458,0.5457,0.5456,0,0.4093,0.434,0.4468,0.4551,0.4779,0.4833,0.492,0.5049,0.5105,0.5226,0.527,0.534,0.5362,0.5401,0.5443,0.5415,0.5513,0.5477,0.5398,0.5394,0.5098,0.5063,0.5027,0.55,0.55,0.55,0.5499,0,0.4132,0.4238,0.4434,0.4518,0.4607,0.4782,0.4857,0.4961,0.5075,0.5123,0.5248,0.5279,0.538,0.5457,0.5488,0.5482,0.5558,0.5398,0.5406,0.5145,0.5115,0.4999,0.4988,0.5505,0.5504,0.5503,0.5502,0,0.4075,0.4224,0.4365,0.4553,0.4594,0.4651,0.4792,0.4845,0.4973,0.5042,0.5079,0.5242,0.5322,0.5438,0.5524,0.5508,0.538,0.5519,0.5232,0.5198,0.4974,0.4982,0.4738,0.4605,0.5428,0.5425,0.5423,0,0.4076,0.4148,0.4325,0.4368,0.4448,0.4542,0.4597,0.4756,0.4807,0.4989,0.5002,0.5139,0.519,0.5322,0.5295,0.5351,0.5272,0.5147,0.4985,0.4912,0.493,0.478,0.4677,0.4701,0.4693,0.4687,0.4682,0,0.4031,0.4086,0.4195,0.4277,0.4334,0.4397,0.4484,0.4514,0.4692,0.4747,0.4849,0.492,0.4994,0.4892,0.4974,0.497,0.4871,0.5014,0.4987,0.438,0.4159,0.4051,0.4726,0.4626,0.4632,0.4636,0.4639,0.4641,0.3949,0.399,0.411,0.4154,0.422,0.4247,0.4215,0.432,0.4368,0.4401,0.4595,0.457,0.458,0.458,0.457,0.4384,0.4422,0.4259,0.4298,0.4173,0.3927,0.4499,0.4366,0.437,0.4373,0.4376,0.4379,0,0.3815,0.3902,0.3971,0.4028,0.4003,0.4084,0.4118,0.4043,0.4009,0.4115,0.414,0.4076,0.3964,0.398,0.3861,0.3736,0.3547,0.3677,0.3398,0.3351,0.3893,0.3743,0.3405,0.3405,0.3405,0.3406,0.3406,0.3406,0.3766,0.3801,0.3835,0.3768,0.3783,0.3662,0.3619,0.3567,0.3585,0.349,0.3413,0.3459,0.3599,0.3589,0.3443,0.3351,0.3167,0.2934,0.3072,0.3484,0.3541,0.3595,0.3451,0.3058,0.3057,0.2284,0.2279,0.2275]},{"header":{"parameterUnit":"m.s-1","parameterCategory":2,"la1":30.2991,"la2":30.254,"lo1":-89.0895,"lo2":-89.0444,"dy":0.0017,"dx":0.0017,"nx":28,"ny":28,"refTime":"2024-06-09T21:00:00:Z","depth":"0","parameterNumber":3,"parameterNumberName":"V-component_of_CURRENTS"},"data":[0,0,0,0,0,0,0,0,0,0,0,0,0,0,0,0,0,0,0,0,0,0,0,0,0,0,0,0,0,0,0,0,0,0,0,0,0,0,0,0,0,0,0,0,0,0,0,0,0,0,0,0,0,0,0,0,0,0,-0.0401,-0.0403,0,-0.0619,-0.0622,-0.0624,-0.0728,-0.0728,-0.0728,-0.0728,-0.0872,-0.0876,-0.088,0,0,0,0,0,0,0,0,0,0,0,0,0,-0.0191,-0.0194,-0.0401,-0.0403,-0.0406,-0.0619,-0.0622,-0.0625,-0.0728,-0.0728,-0.0728,-0.0728,-0.0871,-0.0875,-0.088,0,0,0,0,0,0,0,0,0,0,0,0,0,-0.0333,-0.0195,-0.04,-0.0484,-0.0493,-0.0618,-0.0622,-0.0626,-0.0728,-0.0728,-0.0728,-0.0728,-0.0869,-0.0875,-0.0881,-0.092,0,0,-0.0899,-0.0901,0,0,0,0,0,0,0,0,-0.0324,-0.034,-0.0469,-0.0478,-0.0489,-0.0647,-0.0601,-0.072,-0.0728,-0.0639,-0.0728,-0.0728,-0.079,-0.0802,-0.0845,-0.0926,-0.0933,-0.0899,-0.0903,-0.0905,-0.0907,0,0,0,0,0,0,0,-0.0314,-0.0332,-0.0487,-0.0472,-0.0484,-0.0551,-0.0569,-0.0625,-0.0711,-0.0647,-0.0655,-0.0679,-0.0795,-0.0839,-0.0848,-0.0935,-0.0899,-0.0904,-0.0908,-0.091,-0.0981,-0.098,0,0,0,0,0,0,-0.0282,-0.0322,-0.048,-0.0494,-0.0405,-0.0554,-0.0575,-0.0596,-0.0712,-0.0731,-0.0679,-0.0683,-0.0829,-0.0842,-0.0854,-0.0839,-0.0905,-0.0911,-0.0914,-0.0983,-0.0981,-0.0979,0,0,0,0,0,0,-0.0277,-0.0294,-0.0471,-0.0413,-0.0441,-0.0557,-0.058,-0.06,-0.063,-0.0738,-0.0755,-0.0686,-0.0829,-0.0846,-0.0885,-0.0848,-0.0913,-0.0919,-0.0985,-0.0982,-0.098,-0.0853,0,0,0,0,0,0,-0.027,-0.0291,-0.0287,-0.0411,-0.0443,-0.0517,-0.0581,-0.0605,-0.0647,-0.0654,-0.0749,-0.0764,-0.083,-0.0876,-0.0891,-0.0857,-0.0923,-0.0987,-0.0984,-0.0981,-0.0859,-0.0847,-0.0836,0,0,0,0,0,-0.0261,-0.0254,-0.0285,-0.0304,-0.0436,-0.0516,-0.0537,-0.0621,-0.0646,-0.0648,-0.0715,-0.076,-0.0866,-0.088,-0.0898,-0.0865,-0.0988,-0.0984,-0.0981,-0.0865,-0.0849,-0.0836,0,0,0,0,0,0,-0.017,-0.0269,-0.0304,-0.033,-0.0403,-0.0532,-0.0543,-0.0603,-0.0663,-0.0658,-0.0757,-0.0776,-0.0795,-0.0845,-0.0858,-0.0873,-0.0928,-0.0927,-0.0833,-0.0819,-0.0807,-0.0754,-0.0928,0,0,0,0,0,-0.0145,-0.016,-0.0269,-0.0287,-0.0311,-0.0421,-0.0461,-0.0515,-0.0592,-0.0619,-0.0692,-0.0752,-0.0798,-0.0819,-0.0873,-0.0888,-0.0909,-0.0872,-0.086,-0.0849,-0.0817,-0.0834,-0.082,-0.0967,-0.0967,-0.0967,0,0,-0.0123,-0.0172,-0.0187,-0.0267,-0.0327,-0.0349,-0.0443,-0.0484,-0.0495,-0.0622,-0.0645,-0.0718,-0.0794,-0.0813,-0.0823,-0.0848,-0.0815,-0.0845,-0.0836,-0.0808,-0.0828,-0.0814,-0.0801,-0.0964,-0.0965,-0.0965,0,0,-0.007,-0.0115,-0.0104,-0.015,-0.0219,-0.0282,-0.0282,-0.0391,-0.0422,-0.047,-0.0549,-0.0592,-0.0682,-0.0722,-0.0754,-0.0704,-0.0755,-0.0718,-0.0615,-0.0632,-0.062,-0.061,-0.0598,-0.0588,-0.0708,-0.0708,-0.0708,0,-0.0032,-0.0041,-0.0114,-0.011,-0.0135,-0.0236,-0.0227,-0.0275,-0.0383,-0.0392,-0.0449,-0.0561,-0.0632,-0.0638,-0.0625,-0.0674,-0.0686,-0.0666,-0.0615,-0.0606,-0.0597,-0.0589,-0.0579,-0.0701,-0.0702,-0.0703,-0.0703,0,0.0021,0.0019,0.0027,0.0003,-0.0025,-0.0035,-0.0105,-0.0119,-0.0176,-0.0241,-0.0272,-0.0386,-0.0446,-0.0476,-0.0543,-0.0509,-0.0536,-0.0603,-0.0648,-0.0574,-0.057,-0.0562,-0.0692,-0.0694,-0.0696,-0.0698,0,0,0.0093,0.007,0.0075,0.0096,0.0036,0.0027,0.0037,0.001,0.0042,-0.0069,-0.0053,-0.0157,-0.0227,-0.0265,-0.0353,-0.0372,-0.0333,-0.0448,-0.0452,-0.0428,-0.0342,-0.0306,-0.0295,-0.0397,-0.0395,-0.0394,-0.0357,0,0.0159,0.0205,0.0166,0.0219,0.024,0.0178,0.02,0.0174,0.013,0.0125,0.0018,-0.0015,-0.0143,-0.0169,-0.0205,-0.0306,-0.0308,-0.0335,-0.0424,-0.0425,-0.0396,-0.0283,-0.0269,-0.0229,-0.035,-0.0348,-0.0347,0,0.0226,0.0254,0.0316,0.035,0.0357,0.038,0.0422,0.0425,0.0398,0.0362,0.0305,0.0201,0.0151,0.0026,-0.0078,-0.0091,-0.0185,-0.0268,-0.0271,-0.027,-0.0373,-0.0328,-0.0211,-0.0401,-0.0336,-0.0337,-0.0338,0,0.0328,0.0363,0.0428,0.0431,0.045,0.0495,0.0511,0.0508,0.0543,0.0518,0.0538,0.0421,0.0389,0.0243,0.006,-0.0007,-0.0038,-0.0164,-0.0211,-0.021,-0.0227,-0.0229,-0.0295,-0.0204,-0.0205,-0.0205,-0.0205,0,0.0408,0.0467,0.0494,0.0532,0.0643,0.0617,0.0727,0.0727,0.0749,0.0823,0.0675,0.0718,0.0442,0.0365,0.0166,0.0041,0.0044,-0.014,-0.0182,-0.018,-0.0178,-0.0372,-0.0497,-0.0203,-0.0204,-0.0204,-0.0204,0,0.0505,0.051,0.0604,0.0662,0.0692,0.0781,0.0864,0.0939,0.0951,0.105,0.1047,0.0961,0.0874,0.0626,0.0416,0.0216,-0.0033,0.0009,0.0051,0.0015,-0.0235,-0.0353,-0.0418,-0.0499,-0.0041,-0.004,-0.0039,0,0.0563,0.0616,0.0713,0.0784,0.082,0.0933,0.1008,0.1036,0.1113,0.1218,0.1279,0.1235,0.1233,0.0965,0.0607,0.0317,0.0081,0.0121,-0.0014,-0.0186,-0.0351,-0.0439,-0.0512,0.001,0.0011,0.0012,0.0013,0,0.0687,0.0715,0.0789,0.0926,0.1028,0.1129,0.124,0.1332,0.1392,0.1504,0.1646,0.1672,0.144,0.1159,0.0761,0.0527,-0.0002,0.0138,-0.0067,-0.0302,-0.0376,-0.0495,-0.0068,0.0024,0.0023,0.0022,0.0022,0.0021,0.0792,0.0866,0.0959,0.1089,0.1192,0.1315,0.1417,0.1541,0.1708,0.1874,0.1909,0.1999,0.1591,0.1064,0.074,0.0141,0.0103,-0.0097,-0.0218,-0.0283,-0.0377,0.0112,0.0165,0.0165,0.0164,0.0164,0.0164,0,0.0931,0.0997,0.1116,0.1263,0.1377,0.14,0.1559,0.1661,0.1874,0.2052,0.2186,0.2074,0.1583,0.1039,0.0252,-0.0171,-0.0357,-0.0407,-0.0572,-0.0628,-0.0212,-0.0228,-0.0225,-0.0225,-0.0224,-0.0224,-0.0224,-0.0224,0.1014,0.1147,0.1189,0.1399,0.1488,0.1629,0.1716,0.1871,0.2012,0.2228,0.2308,0.2343,0.1952,0.0592,-0.0353,-0.058,-0.0887,-0.0921,-0.108,-0.0862,-0.0845,-0.0828,-0.0872,-0.1004,-0.1005,-0.1453,-0.1458,-0.1461]}],[{"header":{"parameterUnit":"m.s-1","parameterCategory":2,"la1":30.2991,"la2":30.254,"lo1":-89.0895,"lo2":-89.0444,"dy":0.0017,"dx":0.0017,"nx":28,"ny":28,"refTime":"2024-06-09T21:00:00:Z","depth":"2","parameterNumber":2,"parameterNumberName":"U-component_of_CURRENTS"},"data":[0,0,0,0,0,0,0,0,0,0,0,0,0,0,0,0,0,0,0,0,0,0,0,0,0,0,0,0,0,0,0,0,0,0,0,0,0,0,0,0,0,0,0,0,0,0,0,0,0,0,0,0,0,0,0,0,0,0,0.3217,0.3215,0,0.3016,0.3014,0.3012,0.3078,0.3082,0.3086,0.309,0.3599,0.3608,0.3618,0,0,0,0,0,0,0,0,0,0,0,0,0,0.3119,0.3124,0.3217,0.3214,0.3211,0.3017,0.3014,0.3012,0.3078,0.3082,0.3087,0.3092,0.3595,0.3607,0.3619,0,0,0,0,0,0,0,0,0,0,0,0,0,0.307,0.3126,0.3218,0.3218,0.3215,0.3017,0.3014,0.3011,0.3077,0.3082,0.3088,0.3094,0.3591,0.3606,0.362,0.3593,0,0,0.3666,0.3672,0,0,0,0,0,0,0,0,0.3073,0.3074,0.3221,0.3217,0.3214,0.3075,0.3165,0.324,0.3075,0.3134,0.309,0.3097,0.3482,0.3506,0.3451,0.3616,0.3638,0.3667,0.3676,0.3682,0.3686,0,0,0,0,0,0,0,0.3077,0.308,0.3142,0.3217,0.3213,0.3042,0.3048,0.3174,0.3294,0.3129,0.3132,0.3101,0.3487,0.3435,0.3466,0.3646,0.3666,0.368,0.3689,0.3694,0.4138,0.4141,0,0,0,0,0,0,0.3116,0.3086,0.3148,0.3136,0.3152,0.3042,0.3047,0.3117,0.3277,0.3299,0.3096,0.3105,0.3407,0.3448,0.3485,0.3791,0.3682,0.3696,0.3704,0.4135,0.4139,0.4142,0,0,0,0,0,0,0.3117,0.3128,0.3156,0.3095,0.3087,0.3041,0.3115,0.311,0.3113,0.3243,0.3283,0.3113,0.3414,0.3464,0.3729,0.3801,0.3703,0.3716,0.4132,0.4136,0.414,0.4197,0,0,0,0,0,0,0.3117,0.3132,0.3124,0.3103,0.3093,0.3121,0.3109,0.3101,0.308,0.3091,0.3271,0.3318,0.3422,0.3706,0.3743,0.382,0.3728,0.4128,0.4134,0.4139,0.4192,0.4203,0.4213,0,0,0,0,0,0.3115,0.3135,0.3129,0.313,0.3114,0.3122,0.3104,0.3084,0.3076,0.3104,0.3268,0.3316,0.3765,0.3723,0.3765,0.3847,0.4125,0.4132,0.4138,0.4187,0.4201,0.4213,0,0,0,0,0,0,0.3096,0.3141,0.3135,0.317,0.3171,0.3135,0.3113,0.3091,0.3203,0.3241,0.3383,0.3446,0.37,0.3755,0.3703,0.3984,0.3939,0.3954,0.3961,0.3975,0.3985,0.3936,0.374,0,0,0,0,0,0.308,0.3122,0.3135,0.316,0.3175,0.3136,0.3105,0.311,0.3204,0.3248,0.3394,0.3553,0.373,0.3848,0.4004,0.4162,0.4134,0.423,0.4241,0.4249,0.4236,0.4229,0.4236,0.4163,0.4163,0.4163,0,0,0.3069,0.3096,0.3112,0.3152,0.315,0.3169,0.3143,0.3149,0.3183,0.3301,0.3464,0.362,0.3787,0.3994,0.4104,0.4071,0.4262,0.4258,0.4264,0.4246,0.4236,0.4243,0.4248,0.4168,0.4167,0.4166,0,0,0.3074,0.3126,0.3149,0.3165,0.3166,0.3175,0.3198,0.3224,0.3274,0.3424,0.3534,0.3747,0.3976,0.412,0.4216,0.4367,0.4328,0.4398,0.4415,0.441,0.4414,0.4418,0.4406,0.4407,0.439,0.4391,0.4391,0,0.303,0.3107,0.3146,0.3169,0.3181,0.3207,0.3237,0.327,0.3382,0.3468,0.3519,0.3864,0.4032,0.426,0.4329,0.4395,0.4355,0.4359,0.4418,0.4421,0.4424,0.441,0.4411,0.4394,0.4394,0.4393,0.4393,0,0.3071,0.3098,0.3135,0.3203,0.3223,0.327,0.3336,0.3423,0.3502,0.3548,0.3805,0.4008,0.4209,0.4292,0.4378,0.4495,0.4451,0.4438,0.4373,0.4433,0.4417,0.4417,0.4399,0.4398,0.4397,0.4396,0,0,0.3067,0.3143,0.3149,0.318,0.3254,0.3297,0.341,0.3534,0.3622,0.3768,0.3901,0.4207,0.4276,0.4384,0.4497,0.4512,0.4541,0.4473,0.4471,0.4436,0.4493,0.4345,0.4331,0.4504,0.4504,0.4504,0.4478,0,0.3084,0.3142,0.3179,0.3249,0.3302,0.3385,0.3494,0.3602,0.3729,0.3878,0.4056,0.4242,0.4311,0.4425,0.4456,0.4543,0.4538,0.4547,0.446,0.4458,0.4298,0.4326,0.4038,0.3977,0.4478,0.4478,0.4478,0,0.3097,0.3151,0.3218,0.3319,0.3357,0.3414,0.3617,0.3691,0.3886,0.399,0.4154,0.4264,0.4426,0.4418,0.4517,0.4501,0.4493,0.4508,0.4507,0.4339,0.4308,0.3998,0.3958,0.4477,0.4477,0.4477,0.4477,0,0.3095,0.317,0.3244,0.3274,0.34,0.3487,0.3576,0.3753,0.3838,0.4034,0.4116,0.4294,0.4392,0.4407,0.4487,0.448,0.4508,0.4505,0.4356,0.4346,0.407,0.4034,0.4492,0.4492,0.4492,0.4493,0.4493,0,0.3099,0.3143,0.3259,0.33,0.3411,0.3497,0.3631,0.375,0.3902,0.3983,0.4149,0.4228,0.4372,0.4426,0.4456,0.4407,0.4482,0.4346,0.4321,0.4085,0.4053,0.446,0.4456,0.4492,0.4492,0.4492,0.4492,0,0.3043,0.3117,0.3198,0.3355,0.3397,0.3475,0.3608,0.3699,0.385,0.3944,0.3997,0.4176,0.4229,0.4339,0.4389,0.4356,0.4345,0.4296,0.4014,0.3954,0.4189,0.419,0.411,0.4104,0.4099,0.4095,0.4092,0,0.3019,0.3058,0.3205,0.3251,0.3317,0.3431,0.35,0.3657,0.3715,0.3887,0.3907,0.4024,0.4056,0.4097,0.408,0.4065,0.4204,0.3768,0.3709,0.4162,0.4147,0.4155,0.4162,0.3385,0.3376,0.3369,0.3363,0,0.2965,0.3022,0.3096,0.3192,0.327,0.3323,0.342,0.3452,0.3605,0.3657,0.3695,0.3731,0.3787,0.3642,0.3655,0.3617,0.3754,0.3613,0.4147,0.3524,0.3475,0.3463,0.3494,0.3299,0.3305,0.331,0.3313,0.3316,0.2919,0.2945,0.3041,0.3102,0.3171,0.3179,0.3163,0.3238,0.325,0.3266,0.3404,0.3345,0.3385,0.323,0.3128,0.3076,0.3328,0.3209,0.3233,0.3265,0.3182,0.3127,0.2871,0.2874,0.2878,0.2881,0.2883,0,0.282,0.2856,0.293,0.2978,0.296,0.3053,0.3059,0.2984,0.2891,0.2974,0.2956,0.2715,0.2622,0.2677,0.2487,0.2469,0.2474,0.2379,0.2378,0.2444,0.2503,0.2383,0.1858,0.1855,0.1852,0.1849,0,0,0.2776,0.2769,0.2786,0.2715,0.2753,0.2648,0.2604,0.2514,0.2501,0.2387,0.2343,0.253,0.2608,0.2209,0.215,0.1971,0.2195,0.1894,0.2724,0.2792,0.2846,0.2995,0.2886,0,0,0,0,0]},{"header":{"parameterUnit":"m.s-1","parameterCategory":2,"la1":30.2991,"la2":30.254,"lo1":-89.0895,"lo2":-89.0444,"dy":0.0017,"dx":0.0017,"nx":28,"ny":28,"refTime":"2024-06-09T21:00:00:Z","depth":"2","parameterNumber":3,"parameterNumberName":"V-component_of_CURRENTS"},"data":[0,0,0,0,0,0,0,0,0,0,0,0,0,0,0,0,0,0,0,0,0,0,0,0,0,0,0,0,0,0,0,0,0,0,0,0,0,0,0,0,0,0,0,0,0,0,0,0,0,0,0,0,0,0,0,0,0,0,0.0128,0.0131,0,0.035,0.0352,0.0354,0.0317,0.0314,0.0311,0.0307,0.0214,0.0215,0.0215,0,0,0,0,0,0,0,0,0,0,0,0,0,-0.0007,-0.0007,0.0128,0.0131,0.0134,0.035,0.0352,0.0355,0.0318,0.0314,0.031,0.0306,0.0214,0.0214,0.0215,0,0,0,0,0,0,0,0,0,0,0,0,0,0.0112,-0.0006,0.0127,0.0145,0.0149,0.0349,0.0352,0.0355,0.0319,0.0314,0.0309,0.0304,0.0213,0.0214,0.0215,0.0325,0,0,0.0219,0.0219,0,0,0,0,0,0,0,0,0.0105,0.0116,0.0139,0.0144,0.0149,0.0305,0.0271,0.0331,0.032,0.025,0.0307,0.0301,0.0222,0.0222,0.0273,0.0321,0.0317,0.0219,0.0219,0.022,0.022,0,0,0,0,0,0,0,0.0096,0.0108,0.0211,0.0143,0.015,0.0253,0.026,0.0285,0.0252,0.0255,0.0254,0.0288,0.0221,0.0273,0.027,0.0315,0.0219,0.022,0.022,0.0221,0.0207,0.0206,0,0,0,0,0,0,0.0067,0.0099,0.0204,0.0218,0.0119,0.0258,0.0267,0.0256,0.0259,0.0259,0.0292,0.0286,0.0273,0.0269,0.0266,0.0239,0.022,0.0221,0.0221,0.0208,0.0206,0.0205,0,0,0,0,0,0,0.0063,0.0073,0.0195,0.017,0.0193,0.0264,0.0254,0.0263,0.0295,0.0292,0.0282,0.0311,0.0269,0.0264,0.0273,0.0239,0.0221,0.0222,0.0209,0.0207,0.0206,0.0284,0,0,0,0,0,0,0.0057,0.0069,0.0075,0.0166,0.0193,0.0287,0.026,0.0272,0.0327,0.032,0.0306,0.0293,0.0265,0.0272,0.0274,0.0241,0.0223,0.021,0.0208,0.0206,0.0283,0.0285,0.0287,0,0,0,0,0,0.0051,0.0075,0.0073,0.0088,0.0189,0.0289,0.0312,0.0345,0.0333,0.0353,0.0345,0.0293,0.0256,0.0276,0.0277,0.0243,0.0211,0.0209,0.0206,0.0281,0.0285,0.0287,0,0,0,0,0,0,0.0035,0.0078,0.0076,0.0113,0.0182,0.0282,0.0332,0.0357,0.0383,0.0367,0.0337,0.0327,0.0293,0.0277,0.0297,0.0223,0.0203,0.0202,0.0259,0.0262,0.0265,0.0324,0.0224,0,0,0,0,0,0.0035,0.0051,0.0115,0.0153,0.0179,0.0258,0.0313,0.0335,0.0374,0.0382,0.0374,0.034,0.03,0.0289,0.0257,0.0279,0.0247,0.0234,0.0237,0.024,0.0284,0.0205,0.0206,0.0198,0.0198,0.0198,0,0,0.0049,0.0077,0.0089,0.0152,0.0208,0.0289,0.0274,0.0354,0.0414,0.0368,0.0423,0.0358,0.0304,0.0287,0.0268,0.0268,0.0221,0.0237,0.024,0.0284,0.0203,0.0204,0.0205,0.0196,0.0197,0.0197,0,0,0.0105,0.0095,0.0134,0.019,0.0274,0.0325,0.034,0.0425,0.0436,0.0505,0.0435,0.0378,0.0378,0.0315,0.0284,0.0295,0.0227,0.0241,0.0326,0.0248,0.0249,0.025,0.0206,0.0203,0.0255,0.0255,0.0255,0,0.0125,0.0172,0.0172,0.0241,0.031,0.0334,0.0422,0.0462,0.0539,0.055,0.0513,0.0462,0.0393,0.0356,0.0334,0.0301,0.0263,0.0325,0.0255,0.0255,0.0255,0.021,0.0205,0.0258,0.0258,0.0258,0.0257,0,0.0217,0.0267,0.0303,0.0377,0.0444,0.0526,0.0576,0.0608,0.0621,0.0654,0.0621,0.0548,0.0509,0.0438,0.0402,0.0341,0.0316,0.0259,0.026,0.0261,0.0212,0.0206,0.0263,0.0262,0.0261,0.026,0,0,0.0248,0.0344,0.0363,0.0422,0.0523,0.0593,0.0661,0.0734,0.077,0.0774,0.0805,0.0701,0.0643,0.0603,0.0503,0.0439,0.0372,0.0365,0.0359,0.0347,0.0228,0.0194,0.0183,0.0299,0.0299,0.0298,0.0195,0,0.0332,0.0462,0.0498,0.0649,0.0726,0.0757,0.0826,0.0881,0.0892,0.0915,0.082,0.0797,0.071,0.066,0.0588,0.0415,0.036,0.0408,0.021,0.0205,0.0194,0.0175,0.0222,0.0133,0.0188,0.0187,0.0186,0,0.0428,0.0502,0.0643,0.077,0.0804,0.089,0.0978,0.1047,0.1058,0.1051,0.1018,0.0947,0.0855,0.0763,0.0553,0.0588,0.0436,0.0311,0.0302,0.0252,0.0159,0.0137,0.0118,0.0175,0.0176,0.0177,0.0177,0,0.0468,0.0616,0.0725,0.0778,0.091,0.0964,0.1034,0.1083,0.1138,0.113,0.1147,0.1042,0.098,0.0795,0.0558,0.0544,0.0325,0.0257,0.0101,0.0097,0.0094,0.0091,0.0123,0.0123,0.0123,0.0124,0.0124,0,0.0562,0.0657,0.0746,0.0817,0.0946,0.1016,0.1135,0.1169,0.122,0.1292,0.1217,0.1221,0.0982,0.0834,0.0608,0.0352,0.0359,0.0137,0.0068,0.0119,0.012,0.0124,0.0125,0.012,0.0121,0.0121,0.0122,0,0.0617,0.0672,0.0808,0.0932,0.0975,0.1072,0.1223,0.1293,0.1328,0.1409,0.1412,0.1346,0.1158,0.0918,0.0602,0.0418,0.0159,0.0062,0.0161,0.0107,-0.0022,-0.0016,-0.0109,-0.0111,-0.0113,-0.0115,-0.0116,0,0.0666,0.0734,0.0881,0.0959,0.1027,0.1161,0.1252,0.1336,0.1419,0.1484,0.1525,0.1399,0.1318,0.0891,0.0546,0.0185,0.0128,-0.0017,-0.0045,0.0012,-0.0046,-0.0037,-0.0029,-0.0023,-0.0024,-0.0024,-0.0024,0,0.0767,0.0802,0.0905,0.1047,0.1161,0.1287,0.1422,0.1498,0.1594,0.1645,0.1673,0.1611,0.1275,0.0932,0.0478,0.0237,0.0046,-0.0036,-0.0021,0.003,0.0084,0.003,0.0037,-0.0027,-0.0027,-0.0026,-0.0026,-0.0026,0.0838,0.0916,0.1028,0.1167,0.1276,0.1394,0.1492,0.1608,0.1721,0.1791,0.1754,0.1657,0.1345,0.0752,0.0384,0.0013,0.0021,-0.0129,-0.0124,-0.012,-0.009,-0.0043,-0.017,-0.017,-0.017,-0.0171,-0.0171,0,0.0935,0.1012,0.1143,0.1292,0.139,0.1441,0.1591,0.1659,0.1761,0.1817,0.181,0.1486,0.1148,0.0776,0.024,-0.0086,-0.0092,-0.0203,-0.0131,-0.0126,-0.0122,-0.0089,-0.017,-0.0171,-0.0172,-0.0173,0,0,0.0993,0.1123,0.1177,0.1354,0.1443,0.1561,0.1631,0.1705,0.1761,0.1768,0.1719,0.165,0.1239,0.0842,0.0429,0.0124,0.0066,0.006,0.0096,0.0237,0.0244,-0.004,0.0021,0,0,0,0,0]}],[{"header":{"parameterUnit":"m.s-1","parameterCategory":2,"la1":30.2991,"la2":30.254,"lo1":-89.0895,"lo2":-89.0444,"dy":0.0017,"dx":0.0017,"nx":28,"ny":28,"refTime":"2024-06-09T21:00:00:Z","depth":"4","parameterNumber":2,"parameterNumberName":"U-component_of_CURRENTS"},"data":[0,0,0,0,0,0,0,0,0,0,0,0,0,0,0,0,0,0,0,0,0,0,0,0,0,0,0,0,0,0,0,0,0,0,0,0,0,0,0,0,0,0,0,0,0,0,0,0,0,0,0,0,0,0,0,0,0,0,0.1372,0.1372,0,0.1333,0.1333,0.1333,0.1346,0.1346,0.1347,0.1347,0.1214,0.121,0.1206,0,0,0,0,0,0,0,0,0,0,0,0,0,0.1597,0.1593,0.1373,0.1372,0.1371,0.1333,0.1333,0.1333,0.1346,0.1346,0.1347,0.1348,0.1215,0.1211,0.1206,0,0,0,0,0,0,0,0,0,0,0,0,0,0.1527,0.1591,0.1373,0.137,0.1369,0.1333,0.1333,0.1333,0.1346,0.1346,0.1347,0.1348,0.1217,0.1211,0.1205,0.1153,0,0,0.1187,0.1184,0,0,0,0,0,0,0,0,0.153,0.1519,0.1371,0.137,0.1369,0.1342,0.1363,0.1266,0.1346,0.1359,0.1347,0.1348,0.1245,0.1236,0.1235,0.1147,0.1141,0.1186,0.1182,0.118,0.1178,0,0,0,0,0,0,0,0.1535,0.1521,0.1361,0.137,0.1369,0.1418,0.1407,0.1346,0.1299,0.1358,0.1358,0.1346,0.1244,0.124,0.1231,0.1139,0.1186,0.1181,0.1177,0.1175,0.1305,0.1312,0,0,0,0,0,0,0.1522,0.1524,0.1362,0.1359,0.1448,0.1412,0.1401,0.1353,0.1302,0.1295,0.1346,0.1347,0.125,0.1238,0.1226,0.1231,0.118,0.1174,0.1171,0.1298,0.1306,0.1314,0,0,0,0,0,0,0.1527,0.1507,0.1364,0.1441,0.1426,0.1406,0.1353,0.1352,0.1385,0.1293,0.1285,0.1384,0.125,0.1235,0.1236,0.1223,0.1172,0.1166,0.129,0.13,0.131,0.1195,0,0,0,0,0,0,0.1533,0.1508,0.1516,0.1438,0.142,0.1379,0.1352,0.135,0.1372,0.1375,0.1322,0.1309,0.125,0.1246,0.123,0.1214,0.1161,0.1281,0.1294,0.1307,0.119,0.1201,0.121,0,0,0,0,0,0.154,0.1526,0.1515,0.1499,0.1414,0.138,0.1378,0.137,0.1374,0.1402,0.1384,0.1313,0.1322,0.1243,0.1224,0.1206,0.1274,0.129,0.1306,0.1186,0.1199,0.121,0,0,0,0,0,0,0.1626,0.1523,0.151,0.1466,0.1447,0.1382,0.1412,0.1396,0.1405,0.1421,0.1342,0.1328,0.1347,0.1341,0.1257,0.1321,0.131,0.1323,0.1227,0.1238,0.1248,0.1357,0.1156,0,0,0,0,0,0.1645,0.161,0.1536,0.1512,0.1508,0.1472,0.1473,0.1461,0.1434,0.1442,0.1409,0.1412,0.1395,0.1366,0.138,0.1353,0.142,0.1373,0.1383,0.1389,0.1489,0.1624,0.165,0.1366,0.1366,0.1366,0,0,0.1667,0.1613,0.1593,0.1532,0.152,0.151,0.1477,0.1485,0.1493,0.142,0.1457,0.1439,0.1418,0.1414,0.1424,0.1388,0.1487,0.1409,0.1411,0.1511,0.1642,0.1669,0.1692,0.1377,0.1375,0.1373,0,0,0.1678,0.1655,0.1631,0.162,0.1602,0.1582,0.1593,0.1563,0.1583,0.16,0.1564,0.1583,0.1548,0.1526,0.1503,0.1603,0.1558,0.1596,0.166,0.1784,0.1806,0.1827,0.182,0.1842,0.1564,0.1564,0.1564,0,0.1723,0.1664,0.1632,0.1617,0.1622,0.1616,0.1616,0.1626,0.1611,0.1643,0.1638,0.1669,0.1626,0.1598,0.164,0.1609,0.1644,0.1554,0.1783,0.1807,0.183,0.182,0.1845,0.1561,0.1561,0.1561,0.1562,0,0.1696,0.1686,0.1685,0.1655,0.1665,0.1677,0.1668,0.1722,0.1754,0.1756,0.1815,0.1779,0.1804,0.1768,0.171,0.1817,0.1769,0.1778,0.1709,0.1849,0.1831,0.1858,0.1555,0.1557,0.1558,0.1559,0,0,0.1691,0.167,0.1675,0.1687,0.1696,0.1692,0.1752,0.1792,0.1855,0.1881,0.1944,0.1933,0.1942,0.194,0.1849,0.1937,0.2043,0.1922,0.193,0.184,0.223,0.203,0.204,0.2061,0.2069,0.2075,0.2099,0,0.1695,0.1674,0.167,0.17,0.17,0.1749,0.1788,0.1839,0.1918,0.1991,0.1995,0.2049,0.198,0.1983,0.2049,0.2079,0.2139,0.2033,0.2187,0.2192,0.1934,0.2077,0.21,0.212,0.2126,0.2131,0.2134,0,0.1661,0.1661,0.1677,0.1719,0.173,0.1768,0.1891,0.1931,0.2037,0.2107,0.2176,0.2185,0.2251,0.2226,0.235,0.2275,0.2298,0.232,0.232,0.2232,0.2052,0.2004,0.2185,0.2181,0.2177,0.2174,0.2171,0,0.1649,0.1668,0.1694,0.1707,0.175,0.1819,0.1876,0.1988,0.2055,0.2225,0.2297,0.2366,0.241,0.2511,0.2506,0.2472,0.2653,0.2594,0.2421,0.2398,0.2604,0.2584,0.2784,0.2784,0.2784,0.2784,0.2784,0,0.162,0.1645,0.1708,0.1725,0.179,0.1834,0.195,0.2046,0.2173,0.2244,0.2354,0.2397,0.2523,0.2572,0.2582,0.2555,0.2709,0.2506,0.2448,0.2539,0.2514,0.2612,0.2592,0.2785,0.2784,0.2784,0.2784,0,0.1567,0.1603,0.1653,0.1745,0.1781,0.1843,0.1976,0.2049,0.2204,0.231,0.2374,0.2488,0.2575,0.2603,0.2742,0.2625,0.2653,0.2604,0.2637,0.2568,0.2281,0.2257,0.2447,0.2441,0.2436,0.2432,0.2429,0,0.1518,0.1537,0.1668,0.1708,0.1764,0.1861,0.1907,0.2062,0.214,0.2318,0.2336,0.2479,0.252,0.2503,0.2586,0.2583,0.2555,0.2514,0.2497,0.2351,0.2275,0.2257,0.224,0.2422,0.242,0.2419,0.2418,0,0.1446,0.1527,0.1574,0.1652,0.1731,0.1793,0.1892,0.1933,0.2087,0.2233,0.2281,0.2313,0.2365,0.241,0.2413,0.2409,0.2528,0.2464,0.2474,0.2459,0.2322,0.2247,0.2236,0.2401,0.2404,0.2405,0.2406,0,0.1421,0.1426,0.1504,0.1567,0.1663,0.1698,0.1761,0.182,0.1901,0.2096,0.21,0.222,0.2346,0.2317,0.232,0.2305,0.2285,0.2206,0.2229,0.2248,0.2172,0.1968,0.1953,0,0,0,0,0,0.137,0.1342,0.1391,0.1454,0.1559,0.1602,0.1718,0.1779,0.1922,0.1914,0.201,0.2053,0.2079,0.2138,0.2086,0.2226,0.2284,0.2152,0.2204,0.231,0.2329,0.2258,0,0,0,0,0,0,0.1319,0.1343,0.134,0.1361,0.1384,0.1456,0.1528,0.1619,0.1625,0.1784,0.1816,0.1929,0.1991,0.2097,0.205,0.2065,0.2054,0.2233,0.2228,0.23,0.2317,0.2332,0.2266,0,0,0,0,0]},{"header":{"parameterUnit":"m.s-1","parameterCategory":2,"la1":30.2991,"la2":30.254,"lo1":-89.0895,"lo2":-89.0444,"dy":0.0017,"dx":0.0017,"nx":28,"ny":28,"refTime":"2024-06-09T21:00:00:Z","depth":"4","parameterNumber":3,"parameterNumberName":"V-component_of_CURRENTS"},"data":[0,0,0,0,0,0,0,0,0,0,0,0,0,0,0,0,0,0,0,0,0,0,0,0,0,0,0,0,0,0,0,0,0,0,0,0,0,0,0,0,0,0,0,0,0,0,0,0,0,0,0,0,0,0,0,0,0,0,0.0265,0.0266,0,0.035,0.0351,0.0351,0.0369,0.0369,0.0369,0.0369,0.0409,0.041,0.0411,0,0,0,0,0,0,0,0,0,0,0,0,0,0.0118,0.0121,0.0265,0.0267,0.0268,0.035,0.0351,0.0351,0.0369,0.0369,0.0369,0.0369,0.0408,0.041,0.0411,0,0,0,0,0,0,0,0,0,0,0,0,0,0.0186,0.0121,0.0265,0.029,0.0294,0.035,0.0351,0.0352,0.0369,0.0369,0.0369,0.0368,0.0408,0.041,0.0412,0.0428,0,0,0.0417,0.0418,0,0,0,0,0,0,0,0,0.0182,0.0191,0.0285,0.0289,0.0293,0.0353,0.0314,0.0377,0.0369,0.0335,0.0369,0.0368,0.039,0.0393,0.0403,0.043,0.0432,0.0417,0.0418,0.0419,0.042,0,0,0,0,0,0,0,0.0177,0.0187,0.0294,0.0287,0.0292,0.0298,0.0307,0.0326,0.0358,0.0338,0.0341,0.0359,0.0391,0.0401,0.0404,0.0432,0.0417,0.0419,0.042,0.0421,0.0488,0.0488,0,0,0,0,0,0,0.0178,0.0183,0.0291,0.0297,0.0241,0.0302,0.0311,0.033,0.0359,0.0365,0.0359,0.0359,0.0398,0.0402,0.0405,0.0426,0.0419,0.0421,0.0422,0.0487,0.0488,0.0489,0,0,0,0,0,0,0.0174,0.0186,0.0288,0.0245,0.0259,0.0305,0.0326,0.0332,0.0351,0.0376,0.038,0.0372,0.0398,0.0403,0.0429,0.0428,0.0422,0.0424,0.0486,0.0487,0.0488,0.0468,0,0,0,0,0,0,0.017,0.0185,0.0191,0.0246,0.0262,0.0324,0.0327,0.0334,0.0364,0.0365,0.0389,0.0392,0.0398,0.0427,0.0431,0.043,0.0425,0.0485,0.0487,0.0488,0.0467,0.0468,0.0468,0,0,0,0,0,0.0164,0.019,0.019,0.0204,0.0271,0.0325,0.0333,0.0361,0.0365,0.0375,0.0392,0.0392,0.0437,0.0429,0.0434,0.0433,0.0485,0.0486,0.0488,0.0467,0.0468,0.0468,0,0,0,0,0,0,0.014,0.0196,0.0198,0.024,0.0276,0.033,0.0352,0.0366,0.0389,0.0394,0.0404,0.0409,0.0434,0.0441,0.0431,0.0458,0.046,0.0463,0.0443,0.0443,0.0443,0.0471,0.0427,0,0,0,0,0,0.0135,0.0167,0.0212,0.0249,0.0265,0.0305,0.0328,0.0351,0.0384,0.0395,0.0411,0.0429,0.0444,0.0449,0.0472,0.0485,0.0457,0.0488,0.0488,0.0488,0.0516,0.0457,0.0453,0.0494,0.0494,0.0494,0,0,0.0138,0.0175,0.0192,0.0245,0.0276,0.0317,0.0318,0.0367,0.04,0.0396,0.0439,0.0439,0.0452,0.0469,0.0479,0.0472,0.0455,0.049,0.049,0.0519,0.0458,0.0454,0.045,0.0495,0.0494,0.0494,0,0,0.0174,0.0191,0.0226,0.0257,0.031,0.0335,0.0349,0.04,0.0414,0.0455,0.0454,0.0455,0.0491,0.0485,0.0489,0.0508,0.0467,0.051,0.0523,0.0463,0.0459,0.0455,0.0375,0.0364,0.0499,0.0499,0.0499,0,0.0173,0.0227,0.0244,0.0289,0.0326,0.0344,0.0392,0.0413,0.0465,0.0476,0.0473,0.0496,0.0501,0.05,0.051,0.0507,0.046,0.0513,0.046,0.0456,0.0452,0.0372,0.036,0.0498,0.0498,0.0498,0.0498,0,0.0235,0.0275,0.0306,0.0362,0.0395,0.0447,0.0477,0.0501,0.0517,0.053,0.054,0.0529,0.0538,0.0526,0.0531,0.0505,0.0474,0.0469,0.0451,0.0446,0.0362,0.035,0.0497,0.0497,0.0497,0.0497,0,0,0.0252,0.033,0.0342,0.0379,0.0441,0.0482,0.0525,0.0565,0.0592,0.0593,0.06,0.0606,0.0578,0.0583,0.0553,0.0505,0.0421,0.0481,0.0478,0.0389,0.0265,0.0261,0.0247,0.0393,0.0392,0.0391,0.0201,0,0.0298,0.0386,0.0415,0.0501,0.0548,0.0574,0.0612,0.0644,0.0658,0.0661,0.0614,0.0625,0.0601,0.0594,0.0535,0.0476,0.0397,0.0473,0.0298,0.0293,0.0279,0.0237,0.0388,0.0192,0.0189,0.0187,0.0185,0,0.0355,0.0407,0.0493,0.0572,0.0593,0.0643,0.0704,0.0745,0.074,0.0745,0.0715,0.0678,0.0623,0.0593,0.0447,0.0493,0.0387,0.0316,0.0306,0.0315,0.027,0.021,0.0163,0.0165,0.0167,0.0168,0.017,0,0.0374,0.0468,0.0538,0.057,0.0651,0.0693,0.0739,0.0772,0.0811,0.08,0.0803,0.0716,0.0677,0.0547,0.0413,0.0425,0.0226,0.0214,0.0091,0.0087,0.0155,0.0162,0.0083,0.0083,0.0084,0.0084,0.0085,0,0.0425,0.0484,0.0555,0.0602,0.0682,0.0729,0.0809,0.0842,0.087,0.0901,0.0845,0.0821,0.0668,0.0536,0.04,0.0212,0.0202,0.0094,0.0045,0.0146,0.0155,0.0143,0.0152,0.0077,0.0079,0.008,0.0081,0,0.0449,0.0494,0.0583,0.067,0.0703,0.0768,0.0874,0.0921,0.0951,0.098,0.098,0.0892,0.0738,0.055,0.0329,0.0207,0.0028,-0.005,0.0054,0.0014,-0.0077,-0.0066,-0.0203,-0.0204,-0.0205,-0.0207,-0.0207,0,0.0472,0.0519,0.063,0.0685,0.0736,0.0831,0.0892,0.0961,0.1013,0.102,0.102,0.0891,0.0801,0.0473,0.0287,-0.0008,-0.0044,-0.0157,-0.009,-0.0069,-0.0104,-0.0091,-0.0078,-0.021,-0.021,-0.021,-0.0211,0,0.0513,0.0552,0.062,0.0726,0.0809,0.0895,0.0989,0.1029,0.109,0.1103,0.1053,0.0899,0.0702,0.0471,0.0235,0.003,-0.0078,-0.0171,-0.0169,-0.0108,-0.0079,-0.011,-0.0096,-0.0215,-0.0215,-0.0214,-0.0214,0,0.0541,0.0587,0.0671,0.0767,0.0859,0.0936,0.0988,0.1037,0.1086,0.1098,0.1067,0.0884,0.0782,0.0486,0.0274,0.0075,0.0032,-0.0027,-0.0033,-0.0031,0.0094,0.016,0.0052,0,0,0,0,0,0.0567,0.0617,0.0704,0.0805,0.0891,0.0945,0.1037,0.1077,0.1119,0.1093,0.1094,0.092,0.0628,0.0504,0.0302,0.0235,-0.0016,-0.0009,-0.0091,-0.0241,-0.0235,-0.0115,0,0,0,0,0,0,0.0582,0.0662,0.0702,0.0811,0.0878,0.0971,0.103,0.1061,0.1053,0.1068,0.0918,0.0864,0.0579,0.0741,0.0296,0.0237,0.0156,-0.0137,-0.0142,-0.0244,-0.0239,-0.0235,-0.0109,0,0,0,0,0]}]]